Peru, IN

4:46 PM EST on January 21, 2018 (GMT -0500)
Grissom Air Reserve Base

Weather History for KGUS - April, 2013

Change the Weather History Date:

Sunday, April 28, 2013

  Actual Average Record
Temperature  
Mean Temperature 56 °F -  
Max Temperature 60 °F 65 °F 77 °F (2004)
Min Temperature 51 °F 46 °F 34 °F (2015)
Degree Days  
Heating Degree Days 10    
Growing Degree Days 6 (Base 50)    
Moisture  
Dew Point 54 °F    
Average Humidity 99    
Maximum Humidity 100    
Minimum Humidity 88    
Precipitation  
Precipitation 0.39 in - - ()
Sea Level Pressure  
Sea Level Pressure 29.89 in    
Wind  
Wind Speed 7 mph (East)    
Max Wind Speed 10 mph    
Max Gust Speed -    
Visibility 6 miles    
Events Rain    
Averages and records for this station are not official NWS values.
T = Trace of Precipitation, MM = Missing Value Source: NWS Daily Summary

Daily Weather History Graph

Daily Weather History Graph

Search for Another Location

Airport or City:

Trip Planner

Search our weather history database for the weather conditions in past years. The results will help you decide how hot, cold, wet, or windy it might be!

Date:

Astronomy

Apr. 28, 2013 Rise Set
Actual Time 6:46 AM EDT 8:37 PM EDT
Civil Twilight 6:17 AM EDT 9:07 PM EDT
Nautical Twilight 5:41 AM EDT 9:43 PM EDT
Astronomical Twilight 5:03 AM EDT 10:21 PM EDT
Moon No Moon Rise 9:02 AM EDT (4/28)
Length of Visible Light 14h 49m
Length of Day
13h 50m
Waning Gibbous, 89% of the Moon is Illuminated
Apr 28
Waning Gibbous
May 2
Last Quarter
May 9
New
May 18
First Quarter
May 25
Full

Hourly Weather History & Observations

Time (EDT) Temp. Dew Point Humidity Pressure Visibility Wind Dir Wind Speed Gust Speed Precip Events Conditions
12:58 AM 54.3 °F 52.3 °F 93% 30.02 in 10.0 mi East 6.9 mph - N/A   Overcast
1:43 AM 53.6 °F 51.8 °F 94% 29.99 in 10.0 mi East 5.8 mph - N/A   Overcast
1:58 AM 54.3 °F 52.2 °F 92% 29.99 in 10.0 mi East 4.6 mph - N/A   Overcast
2:03 AM 53.6 °F 51.8 °F 94% 29.98 in 10.0 mi East 5.8 mph - N/A   Overcast
2:23 AM 53.6 °F 51.8 °F 94% 29.97 in 10.0 mi East 5.8 mph - N/A   Overcast
2:32 AM 53.6 °F 51.8 °F 94% 29.96 in 10.0 mi East 6.9 mph - N/A   Light Drizzle
2:42 AM 53.6 °F 51.8 °F 94% 29.96 in 8.0 mi East 6.9 mph - N/A Rain Light Rain
2:58 AM 53.6 °F 52.5 °F 96% 29.96 in 8.0 mi ENE 5.8 mph - 0.00 in Rain Light Rain
3:28 AM 53.6 °F 53.6 °F 100% 29.93 in 5.0 mi ENE 4.6 mph - N/A Rain Light Rain
3:33 AM 53.6 °F 53.6 °F 100% 29.93 in 4.0 mi ENE 4.6 mph - N/A Rain Light Rain
3:48 AM 53.6 °F 53.6 °F 100% 29.93 in 5.0 mi ENE 5.8 mph - N/A Rain Light Rain
3:53 AM 53.6 °F 53.6 °F 100% 29.93 in 5.0 mi ENE 5.8 mph - N/A Rain Rain
3:58 AM 51.8 °F 51.8 °F 100% 29.94 in 4.0 mi ENE 5.8 mph - 0.06 in Rain Light Rain
4:03 AM 51.8 °F 51.8 °F 100% 29.92 in 4.0 mi ENE 6.9 mph - N/A Rain Light Rain
4:08 AM 51.8 °F 51.8 °F 100% 29.92 in 5.0 mi ENE 5.8 mph - N/A Rain Light Rain
4:09 AM 51.8 °F 51.8 °F 100% 29.92 in 5.0 mi ENE 5.8 mph - N/A Rain Light Rain
4:14 AM 51.8 °F 51.8 °F 100% 29.92 in 6.0 mi ENE 6.9 mph - N/A Rain Light Rain
4:39 AM 51.8 °F 51.8 °F 100% 29.92 in 5.0 mi ENE 6.9 mph - N/A   Light Drizzle
4:44 AM 51.8 °F 51.8 °F 100% 29.92 in 4.0 mi ENE 6.9 mph - N/A Rain Rain
4:54 AM 51.8 °F 51.8 °F 100% 29.91 in 4.0 mi ENE 8.1 mph - N/A Rain Rain
4:55 AM 51.8 °F 51.8 °F 100% 29.91 in 4.0 mi ENE 8.1 mph - N/A Rain Rain
4:58 AM 51.8 °F 51.8 °F 100% 29.92 in 5.0 mi ENE 8.1 mph - 0.13 in Rain Heavy Rain
5:03 AM 51.8 °F 51.8 °F 100% 29.91 in 4.0 mi ENE 9.2 mph - N/A Rain Light Rain
5:13 AM 51.8 °F 51.8 °F 100% 29.90 in 4.0 mi ENE 9.2 mph - N/A Rain Rain
5:18 AM 51.8 °F 51.8 °F 100% 29.90 in 4.0 mi East 9.2 mph - N/A Rain Rain
5:21 AM 51.8 °F 51.8 °F 100% 29.90 in 4.0 mi East 10.4 mph - N/A Rain Rain
5:31 AM 51.8 °F 51.8 °F 100% 29.90 in 4.0 mi East 10.4 mph - N/A Rain Rain
5:36 AM 51.8 °F 51.8 °F 100% 29.90 in 7.0 mi East 9.2 mph - N/A Rain Light Rain
5:41 AM 51.8 °F 51.8 °F 100% 29.89 in 6.0 mi ENE 9.2 mph - N/A Rain Light Rain
5:46 AM 51.8 °F 51.8 °F 100% 29.90 in 5.0 mi East 8.1 mph - N/A Rain Light Rain
5:51 AM 51.8 °F 51.8 °F 100% 29.90 in 4.0 mi East 9.2 mph - N/A Rain Light Rain
5:56 AM 51.8 °F 51.8 °F 100% 29.90 in 4.0 mi East 8.1 mph - N/A Rain Light Rain
5:58 AM 52.5 °F 52.5 °F 100% 29.91 in 5.0 mi East 8.1 mph - 0.12 in Rain Light Rain
6:02 AM 51.8 °F 51.8 °F 100% 29.90 in 4.0 mi East 8.1 mph - N/A   Overcast
6:04 AM 51.8 °F 51.8 °F 100% 29.90 in 4.0 mi East 9.2 mph - N/A   Light Drizzle
6:07 AM 51.8 °F 51.8 °F 100% 29.90 in 3.0 mi East 6.9 mph - N/A Rain Light Rain
6:12 AM 51.8 °F 51.8 °F 100% 29.90 in 2.5 mi East 8.1 mph - N/A Rain Light Rain
6:22 AM 53.6 °F 53.6 °F 100% 29.89 in 3.0 mi ENE 9.2 mph - N/A Rain Light Rain
6:26 AM 51.8 °F 51.8 °F 100% 29.89 in 3.0 mi East 9.2 mph - N/A   Light Drizzle
6:36 AM 51.8 °F 51.8 °F 100% 29.89 in 4.0 mi ENE 9.2 mph - N/A   Light Drizzle
6:40 AM 51.8 °F 51.8 °F 100% 29.89 in 4.0 mi ENE 9.2 mph - N/A   Overcast
6:50 AM 51.8 °F 51.8 °F 100% 29.89 in 5.0 mi East 8.1 mph - N/A   Overcast
6:58 AM 52.7 °F 52.7 °F 100% 29.90 in 3.0 mi East 9.2 mph - 0.03 in   Overcast
7:16 AM 53.6 °F 53.6 °F 100% 29.88 in 2.0 mi East 10.4 mph - N/A   Light Drizzle
7:58 AM 52.9 °F 52.9 °F 100% 29.90 in 3.0 mi East 8.1 mph - 0.01 in   Overcast
8:43 AM 53.6 °F 53.6 °F 100% 29.88 in 5.0 mi East 5.8 mph - N/A Rain Light Rain
8:58 AM 53.4 °F 53.4 °F 100% 29.89 in 5.0 mi East 5.8 mph - 0.01 in Rain Light Rain
9:21 AM 53.6 °F 53.6 °F 100% 29.87 in 10.0 mi East 5.8 mph - N/A   Light Drizzle
9:24 AM 53.6 °F 53.6 °F 100% 29.87 in 10.0 mi East 5.8 mph - N/A   Overcast
9:25 AM 53.6 °F 53.6 °F 100% 29.87 in 7.0 mi East 5.8 mph - N/A   Overcast
9:58 AM 54.7 °F 54.7 °F 100% 29.88 in 7.0 mi East 4.6 mph - 0.01 in   Overcast
10:31 AM 55.4 °F 55.4 °F 100% 29.86 in 6.0 mi ESE 4.6 mph - N/A   Overcast
10:36 AM 55.4 °F 55.4 °F 100% 29.86 in 6.0 mi SE 5.8 mph - N/A   Light Drizzle
10:55 AM 55.4 °F 55.4 °F 100% 29.86 in 7.0 mi ESE 4.6 mph - N/A   Overcast
10:58 AM 55.4 °F 55.4 °F 100% 29.87 in 7.0 mi ESE 3.5 mph - 0.00 in   Overcast
11:55 AM 56.5 °F 56.5 °F 100% 29.87 in 6.0 mi Calm Calm - 0.00 in   Overcast
12:55 PM 57.2 °F 57.2 °F 100% 29.86 in 6.0 mi SSE 4.6 mph - N/A   Overcast
1:58 PM 57.7 °F 57.7 °F 100% 29.85 in 6.0 mi SSW 3.5 mph - 0.00 in   Light Drizzle
2:18 PM 57.2 °F 57.2 °F 100% 29.85 in 8.0 mi SW 4.6 mph - N/A   Light Drizzle
2:19 PM 57.2 °F 57.2 °F 100% 29.85 in 8.0 mi SW 4.6 mph - N/A   Overcast
2:29 PM 57.2 °F 57.2 °F 100% 29.84 in 3.0 mi WSW 4.6 mph - N/A   Overcast
2:42 PM 57.2 °F 57.2 °F 100% 29.84 in 3.0 mi WSW 4.6 mph - N/A Rain Light Rain
2:58 PM 57.6 °F 57.6 °F 100% 29.85 in 3.0 mi West 5.8 mph - 0.01 in Rain Light Rain
3:08 PM 57.2 °F 57.2 °F 100% 29.84 in 5.0 mi West 5.8 mph - N/A   Light Drizzle
3:42 PM 59.0 °F 59.0 °F 100% 29.84 in 10.0 mi Variable 5.8 mph - N/A   Overcast
3:57 PM 59.0 °F 59.0 °F 100% 29.83 in 10.0 mi Variable 4.6 mph - N/A   Overcast
3:59 PM 59.2 °F 59.0 °F 99% 29.84 in 10.0 mi Variable 4.6 mph - 0.01 in   Overcast
4:58 PM 59.0 °F 57.2 °F 94% 29.84 in 10.0 mi WNW 8.1 mph - N/A   Overcast
5:58 PM 60.8 °F 57.2 °F 88% 29.84 in 10.0 mi WNW 4.6 mph - N/A   Overcast
6:08 PM 59.0 °F 57.2 °F 94% 29.83 in 10.0 mi West 3.5 mph - N/A   Mostly Cloudy
6:23 PM 59.0 °F 57.2 °F 94% 29.83 in 10.0 mi Variable 4.6 mph - N/A   Overcast
6:58 PM 59.4 °F 56.8 °F 91% 29.85 in 10.0 mi West 4.6 mph - N/A   Overcast
7:58 PM 58.8 °F 56.7 °F 93% 29.85 in 10.0 mi West 4.6 mph - N/A   Overcast
8:58 PM 57.7 °F 57.0 °F 97% 29.86 in 10.0 mi WSW 4.6 mph - N/A   Overcast
9:13 PM 57.2 °F 57.2 °F 100% 29.86 in 10.0 mi West 4.6 mph - N/A   Overcast
9:58 PM 57.2 °F 57.2 °F 100% 29.88 in 10.0 mi West 4.6 mph - N/A   Overcast
10:58 PM 56.3 °F 56.3 °F 100% 29.89 in 10.0 mi SW 5.8 mph - N/A   Overcast
11:48 PM 55.4 °F 55.4 °F 100% 29.88 in 10.0 mi WSW 5.8 mph - N/A   Overcast
11:58 PM 56.1 °F 56.1 °F 100% 29.89 in 9.0 mi SW 5.8 mph - N/A   Overcast